カタログに戻る

STARLINK-31631

運用中通信VLEO
NORAD 59459·PAYLOAD·🇺🇸 United States

打ち上げ Apr 10, 2024 から Cape Canaveral Space Force Station

Loading…

次のパス (今後24時間)

TLE

最新Source: CelesTrak SupGP

元期: Sep 15, 2026, 02:00 UTC

1 59459C 24068E   26258.08381944 -.00028950  00000+0 -10485-2 0  2585
2 59459  43.0021  41.1749 0001506 269.5540  11.1045 15.27595640    10

AllMySatでSTARLINK-31631をリアルタイム追跡

Download on the App Store